Regional Weather Roundup
Issued by NWS Upton, NY

Current Version | Previous Version | Graphics & Text | Print | Product List | Glossary Off
Versions: 1 2 3 4 5 6 7 8 9 10 11 12 13 14 15 16 17 18 19 20 21 22 23 24 25 26 27 28 29 30 31 32 33 34 35 36 37 38 39 40 41 42 43 44 45 46 47 48 49 50
000 ASUS41 KOKX 300804 RWROKX REGIONAL WEATHER ROUNDUP NATIONAL WEATHER SERVICE NEW YORK NY 400 AM EDT SUN AUG 30 2015 NOTE: "FAIR" INDICATES FEW OR NO CLOUDS BELOW 12,000 FEET WITH NO SIGNIFICANT WEATHER AND/OR OBSTRUCTIONS TO VISIBILITY. NYZ071-072-176-178-NJZ106-104-300900- NEW YORK CITY METRO AREA CITY SKY/WX TMP DP RH WIND PRES REMARKS CENTRAL PARK CLEAR 74 60 61 W5 30.11F LAGUARDIA APRT MOCLDY 74 61 63 SW5 30.07F KENNEDY INTL MOCLDY 71 63 75 SW7 30.10S NEWARK/LIBERTY MOCLDY 69 60 73 SW6 30.08F BRNX BOT. GARD N/A 72 59 64 E1 30.10R TETERBORO CLEAR 69 59 70 CALM 30.07F $$ NYZ177-179-078>081-300900- LONG ISLAND NEW YORK CITY SKY/WX TMP DP RH WIND PRES REMARKS FARMINGDALE PTCLDY 71 61 70 SW7 30.09S ISLIP PTCLDY 71 62 73 SW9 30.07S SHIRLEY PTCLDY 72 65 78 SW7 30.10R WESTHAMPTON MOCLDY 73 68 84 SW7 30.10F MONTAUK POINT N/A 73 66 78 VRB5 30.10F $$ NYZ052-065-067-300900- HUDSON VALLEY CITY SKY/WX TMP DP RH WIND PRES REMARKS WHITE PLAINS CLEAR 66 61 84 CALM 30.08F NEWBURGH CLEAR 63 61 94 CALM 30.09S MONTGOMERY PTCLDY 59 58 96 CALM 30.08S FOG POUGHKEEPSIE CLEAR 62 60 93 CALM 30.06S ALBANY MOCLDY 63 58 83 CALM 30.07S $$ NJZ001-105-106-008-010-013-015-019>022-104-300900- NEW JERSEY CITY SKY/WX TMP DP RH WIND PRES REMARKS NEWARK/LIBERTY MOCLDY 69 60 73 SW6 30.08F TETERBORO CLEAR 69 59 70 CALM 30.07F CALDWELL CLEAR 67 60 78 CALM 30.09F MORRISTOWN FOG 57 54 88 CALM 30.09F VSB 1/2 SOMERVILLE CLEAR 61 58 90 CALM 30.08S FOG SUSSEX PTCLDY 59 57 93 CALM 30.09F FOG ANDOVER N/A 60 60 100 CALM 30.10F TRENTON PTCLDY 67 62 84 CALM 30.10R MILLVILLE CLEAR 63 61 93 CALM 30.12R ATLANTIC CITY PTCLDY 68 63 84 CALM 30.11S WRIGHTSTOWN MOCLDY 64 62 94 SW2 30.09R TOMS RIVER CLEAR 61 57 88 CALM 30.11S BELMAR CLEAR 66 57 72 SW5 30.10S $$ PAZ047>061-062-071-300900- EASTERN PENNSYLVANIA CITY SKY/WX TMP DP RH WIND PRES REMARKS PHILADELPHIA MOCLDY 71 61 70 S6 30.11S ALLENTOWN CLEAR 62 60 93 CALM 30.10R FOG SCRANTON CLEAR 63 58 83 E6 30.09F $$ CTZ002-004>006-009-010-012-RIZ004-006-007-MAZ004-011-015-300900- SOUTHERN NEW ENGLAND IN CT CITY SKY/WX TMP DP RH WIND PRES REMARKS BRADLEY INTL PTCLDY 66 61 84 S3 30.06F HARTFORD CLEAR 67 63 87 CALM 30.06F DANBURY CLEAR 64 59 83 CALM 30.09F WTRBRY/OXFORD CLEAR 64 57 77 S3 30.10S BRIDGEPORT PTCLDY 74 64 71 SW9 30.07F MERIDEN CLEAR 62 59 90 CALM 30.07F NEW HAVEN PTCLDY 73 64 73 SW6 30.08S CHESTER NOT AVBL GROTON PTCLDY 70 67 90 CALM 30.08S WILLIMANTIC PTCLDY 61 58 90 CALM 30.08F IN RI CITY SKY/WX TMP DP RH WIND PRES REMARKS PROVIDENCE CLEAR 68 63 84 W5 30.08F BLOCK ISLAND PTCLDY 70 66 88 W9 30.09F WESTERLY PTCLDY 62 60 93 CALM 30.09F IN MA CITY SKY/WX TMP DP RH WIND PRES REMARKS BOSTON MOCLDY 70 60 70 SW13 30.06S WORCESTER CLEAR 63 58 83 W9 30.09F WESTFIELD PTCLDY 62 60 93 CALM 30.07S PROVINCETOWN PTCLDY 66 59 77 SW8 30.07F NANTUCKET PTCLDY 68 64 87 W7 30.10S $$ ANZ330-335-338-340-345-350-353-355-300900- COASTAL MARINE OBSERVATIONS STATION/POSITION TIME SKY/WX TEMP WIND PRES VSBY WAVE AIR SEA DIR/SP/G HT/PER (UTC) (F) (DEG/KT/KT) (MB) (MI) (FT/S) NY HARB ENTRANCE 0650 74 75 240/ 16/ 17 1018.7 3/11 4S FIRE IS NOT AVBL 20S FIRE ISLAND 0650 74 74 240/ 12/ 14 1019.2 3/11 GREAT SOUTH BAY 0700 74 78 260/ 12/ 14 N/A 23SW MTP 0750 74 73 240/ 10/ 12 1018.7 3/10 HUDSON CANYON NOT AVBL KINGS POINT NOT AVBL EXECUTION ROCKS 0700 74 210/ 10/ 12 N/A CENTRAL LI SOUND NOT AVBL EASTERN LI SOUND 0700 71 70 230/ 6/ 6 N/A ROBBINS REEF NOT AVBL $$ >>>>>>>>>>>>>>>>>>>>>>>>>>>> KEY <<<<<<<<<<<<<<<<<<<<<<<<<<< > < > SKY/WX - SKY CONDITION/PRESENT WEATHER < > TMP - TEMPERATURE IN FAHRENHEIT < > DP - DEWPOINT IN FAHRENHEIT < > RH - RELATIVE HUMIDITY IN PERCENT < > WIND - DIRECTION AND SPEED IN MPH < > PRES - MEAN SEA LEVEL PRESSURE IN INCHES OF HG < > WCI - WIND CHILL INDEX < > VSB - VISIBILITY IN MILES < > HX - HEAT INDEX < > TC - TEMPERATURE IN CELSIUS < > VRB - VARIABLE WIND DIRECTION < > < >>>>>>>>>>>>>>>>>>>>>>>>>>>> KEY <<<<<<<<<<<<<<<<<<<<<<<<<<<

USA.gov is the U.S. government's official web portal to all federal, state and local government web resources and services.